Stations météo

Publicité
Charleroi/Gosselies, Belgique (6449): Température de l'air & dewpoint: 14.09.2018 01:00:00 - 20.09.2018 01:00:00 (CEST)Charleroi/Gosselies, Belgique (6449): Vitesse du vent & gusts: 14.09.2018 01:00:00 - 20.09.2018 01:00:00 (CEST)Charleroi/Gosselies, Belgique (6449): Direction du vent: 14.09.2018 01:00:00 - 20.09.2018 01:00:00 (CEST)Charleroi/Gosselies, Belgique (6449): reduced air pressure: 14.09.2018 01:00:00 - 20.09.2018 01:00:00 (CEST)Charleroi/Gosselies, Belgique (6449): visibility: 14.09.2018 01:00:00 - 20.09.2018 01:00:00 (CEST)
Date & Time tt [°C] td [°C] ff [km/h] ff [knt] fx [km/h] fx [knt] dd ppp [hPa] vv [km]
20.09.2018 01:00:00 - - - - - - - - -
20.09.2018 00:00:00 17,7 12,0 11 6 18 10 SSW 1019,4 20
19.09.2018 23:00:00 18,7 11,9 11 6 - - SSW 1019,4 10
19.09.2018 22:00:00 19,3 11,8 13 7 22 12 SSW 1019,1 10
19.09.2018 21:00:00 19,9 11,8 15 8 22 12 SSW 1018,8 10
19.09.2018 20:00:00 20,3 11,8 16 9 - - WSW 1018,6 10
19.09.2018 19:00:00 21,7 11,7 18 10 40 21 WSW 1018,2 10
19.09.2018 18:00:00 23,7 11,4 24 13 43 23 SW 1017,6 10
19.09.2018 17:00:00 23,8 10,7 24 13 - - SW 1017,5 10
19.09.2018 16:00:00 24,0 11,0 28 15 43 23 SW 1017,3 10
19.09.2018 15:00:00 23,4 10,9 29 16 43 23 SW 1017,6 10
19.09.2018 14:00:00 22,5 11,9 31 17 - - SW 1018,0 10
19.09.2018 13:00:00 22,1 13,1 34 18 47 25 SW 1018,1 10
19.09.2018 12:00:00 21,6 13,6 26 14 43 23 SW 1018,0 10
19.09.2018 11:00:00 20,4 14,5 24 13 - - SSW 1017,7 10
19.09.2018 10:00:00 18,8 14,6 22 12 36 19 SW 1017,9 10
19.09.2018 09:00:00 17,6 14,9 18 10 29 16 SSW 1017,5 10
19.09.2018 08:00:00 16,8 15,1 13 7 - - S 1017,2 10
19.09.2018 07:00:00 16,9 15,1 11 6 25 14 S 1017,2 10
19.09.2018 06:00:00 16,5 15,0 15 8 25 14 S 1017,2 10
19.09.2018 05:00:00 16,6 15,0 15 8 - - S 1017,2 10
19.09.2018 04:00:00 15,4 14,1 11 6 18 10 S 1017,2 10
19.09.2018 03:00:00 15,2 13,1 11 6 14 8 SSE 1017,4 20
19.09.2018 02:00:00 15,8 13,3 8 4 - - SSE 1017,4 10
19.09.2018 01:00:00 15,6 13,3 2 1 7 4 - 1017,5 10
19.09.2018 00:00:00 16,0 13,2 4 2 11 6 WSW 1017,4 10
18.09.2018 23:00:00 17,7 13,3 5 3 - - W 1017,1 10
18.09.2018 22:00:00 18,8 13,5 5 3 18 10 W 1016,7 10
18.09.2018 21:00:00 21,1 12,9 13 7 22 12 WSW 1015,8 10
18.09.2018 20:00:00 21,7 12,5 16 9 - - WSW 1015,1 10
18.09.2018 19:00:00 23,4 11,9 22 12 36 19 WSW 1014,7 10
18.09.2018 18:00:00 24,6 12,7 28 15 40 21 SW 1014,2 10
18.09.2018 17:00:00 25,3 11,5 28 15 - - WSW 1013,9 10
18.09.2018 16:00:00 25,2 10,9 31 17 47 25 WSW 1013,9 10
18.09.2018 15:00:00 25,4 12,0 28 15 47 25 SW 1013,5 10
18.09.2018 14:00:00 25,2 11,1 28 15 - - SSW 1013,2 10
18.09.2018 13:00:00 25,1 11,3 24 13 36 19 SW 1012,9 10
18.09.2018 12:00:00 24,2 11,8 22 12 36 19 SSW 1013,0 10
18.09.2018 11:00:00 22,4 11,6 22 12 - - SW 1013,0 10
18.09.2018 10:00:00 21,3 11,5 22 12 32 18 SSW 1012,8 10
18.09.2018 09:00:00 20,0 11,0 21 11 29 16 SSW 1012,5 10
18.09.2018 08:00:00 19,3 10,0 18 10 - - S 1011,8 20
18.09.2018 07:00:00 19,2 9,5 16 9 25 14 S 1011,7 10
18.09.2018 06:00:00 19,5 9,2 13 7 22 12 S 1011,6 10
18.09.2018 05:00:00 19,3 9,4 11 6 - - S 1011,9 10
18.09.2018 04:00:00 19,2 9,5 13 7 22 12 S 1012,3 10
18.09.2018 03:00:00 17,7 8,1 13 7 18 10 SSE 1012,8 10
18.09.2018 02:00:00 17,4 6,6 11 6 - - SSE 1013,3 10
18.09.2018 01:00:00 17,0 7,1 11 6 14 8 S 1013,9 10
18.09.2018 00:00:00 18,1 6,7 8 4 18 10 S 1014,2 10
17.09.2018 23:00:00 17,8 7,0 11 6 - - SSE 1014,6 10
17.09.2018 22:00:00 19,0 6,7 9 5 22 12 SE 1014,9 10
17.09.2018 21:00:00 20,5 6,9 8 4 14 8 SE 1015,2 10
17.09.2018 20:00:00 21,5 6,7 5 3 - - ESE 1015,2 10
17.09.2018 19:00:00 24,1 6,4 9 5 18 10 ESE 1015,3 10
17.09.2018 18:00:00 25,0 4,6 11 6 22 12 SSE 1015,6 10
17.09.2018 17:00:00 25,9 3,4 11 6 - - S 1016,2 10
17.09.2018 16:00:00 25,7 2,9 9 5 25 14 SSW 1017,0 10
17.09.2018 15:00:00 25,4 5,0 11 6 25 14 S 1017,7 10
17.09.2018 14:00:00 23,8 5,7 11 6 - - SSW 1018,6 10
17.09.2018 13:00:00 23,0 6,8 11 6 22 12 S 1019,2 20
17.09.2018 12:00:00 21,9 8,9 11 6 18 10 S 1019,7 20
17.09.2018 11:00:00 18,9 8,7 8 4 - - S 1020,2 10
17.09.2018 10:00:00 16,9 9,0 4 2 11 6 - 1020,6 10
17.09.2018 09:00:00 14,0 8,7 4 2 11 6 S 1020,8 20
17.09.2018 08:00:00 11,6 8,0 8 4 - - S 1020,6 10
17.09.2018 07:00:00 10,7 7,8 8 4 14 8 S 1020,3 10
17.09.2018 06:00:00 12,2 7,8 5 3 7 4 S 1020,7 10
17.09.2018 05:00:00 12,5 8,1 5 3 - - S 1020,6 10
17.09.2018 04:00:00 11,7 8,8 7 4 7 4 S 1020,7 20
17.09.2018 03:00:00 11,1 9,2 4 2 7 4 S 1021,0 10
17.09.2018 02:00:00 11,7 9,1 5 3 - - SSW 1021,0 10
17.09.2018 01:00:00 13,9 9,2 4 2 7 4 S 1020,5 10
17.09.2018 00:00:00 15,1 9,3 5 3 7 4 S 1021,0 10
16.09.2018 23:00:00 15,5 8,8 4 2 - - SW 1021,2 10
16.09.2018 22:00:00 16,8 8,9 4 2 7 4 - 1021,1 10
16.09.2018 21:00:00 18,4 8,7 4 2 7 4 - 1020,7 10
16.09.2018 20:00:00 20,4 8,6 5 3 - - W 1019,9 10
16.09.2018 19:00:00 21,2 7,8 9 5 14 8 WSW 1019,6 10
16.09.2018 18:00:00 22,1 8,0 8 4 18 10 SSW 1019,4 10
16.09.2018 17:00:00 22,8 6,8 8 4 - - - 1019,7 10
16.09.2018 16:00:00 22,6 6,7 8 4 18 10 S 1020,2 10
16.09.2018 15:00:00 22,3 6,7 8 4 18 10 - 1020,8 10
16.09.2018 14:00:00 21,3 6,6 7 4 - - S 1021,5 20
16.09.2018 13:00:00 21,1 7,2 11 6 18 10 S 1022,0 10
16.09.2018 12:00:00 20,1 7,7 11 6 22 12 S 1022,7 10
16.09.2018 11:00:00 18,0 8,3 11 6 - - SSE 1023,1 10
16.09.2018 10:00:00 15,0 9,4 8 4 11 6 S 1023,7 10
16.09.2018 09:00:00 11,9 8,9 5 3 18 10 SSE 1023,6 10
16.09.2018 08:00:00 9,8 8,3 11 6 - - SSE 1023,6 10
16.09.2018 07:00:00 9,5 8,1 9 5 18 10 SSE 1023,6 10
16.09.2018 06:00:00 9,7 8,2 13 7 14 8 SSE 1023,6 10
16.09.2018 05:00:00 10,1 8,4 7 4 - - SSE 1023,7 15
16.09.2018 04:00:00 10,9 8,9 9 5 11 6 SSE 1024,2 10
16.09.2018 03:00:00 11,5 9,2 4 2 7 4 SSE 1024,8 10
16.09.2018 02:00:00 11,7 9,6 4 2 - - S 1025,4 15
16.09.2018 01:00:00 12,5 9,5 4 2 7 4 S 1025,7 10
16.09.2018 00:00:00 13,8 10,3 4 2 11 6 SW 1025,6 10
15.09.2018 23:00:00 13,9 9,6 8 4 - - S 1025,6 10
15.09.2018 22:00:00 14,9 9,1 4 2 7 4 SW 1025,7 10
15.09.2018 21:00:00 15,5 9,2 2 1 7 4 - 1025,4 10
15.09.2018 20:00:00 16,8 8,5 4 2 - - - 1024,9 10
15.09.2018 19:00:00 18,3 8,2 11 6 22 12 W 1024,6 10
15.09.2018 18:00:00 19,4 7,8 11 6 22 12 W 1024,7 10
15.09.2018 17:00:00 19,6 8,6 8 4 - - WNW 1025,0 10
15.09.2018 16:00:00 18,1 9,1 7 4 25 14 WNW 1025,2 20
15.09.2018 15:00:00 18,5 8,7 16 9 32 18 WSW 1025,4 10
15.09.2018 14:00:00 19,5 8,8 13 7 - - - 1025,3 10
15.09.2018 13:00:00 16,7 9,6 15 8 29 16 WSW 1025,8 10
15.09.2018 12:00:00 16,9 10,2 13 7 29 16 WSW 1026,0 10
15.09.2018 11:00:00 15,4 10,6 13 7 - - WSW 1025,7 10
15.09.2018 10:00:00 13,6 11,0 14 8 22 12 SW 1025,5 12
15.09.2018 09:00:00 11,6 10,3 15 8 18 10 SW 1025,3 10
15.09.2018 08:00:00 10,3 9,5 13 7 - - SW 1024,6 10
15.09.2018 07:00:00 10,0 9,2 15 8 18 10 SW 1024,2 10
15.09.2018 06:00:00 9,7 8,8 13 7 14 8 SSW 1024,0 10
15.09.2018 05:00:00 10,4 9,0 11 6 - - SW 1023,7 10
15.09.2018 04:00:00 10,9 9,0 11 6 18 10 SW 1023,5 10
15.09.2018 03:00:00 11,0 8,7 13 7 14 8 SW 1023,7 10
15.09.2018 02:00:00 11,3 8,7 11 6 - - SW 1023,7 10
15.09.2018 01:00:00 12,0 8,3 9 5 14 8 SW 1023,3 10
15.09.2018 00:00:00 12,6 8,1 8 4 22 12 W 1023,1 10
14.09.2018 23:00:00 14,1 8,1 9 5 - - W 1022,7 10
14.09.2018 22:00:00 14,6 7,7 9 5 22 12 W 1022,5 10
14.09.2018 21:00:00 15,2 8,0 11 6 22 12 WNW 1021,9 10
14.09.2018 20:00:00 16,2 8,3 11 6 - - WNW 1021,4 10
14.09.2018 19:00:00 17,0 8,2 9 5 25 14 WNW 1021,1 10
14.09.2018 18:00:00 18,0 6,3 11 6 25 14 W 1020,9 20
14.09.2018 17:00:00 18,5 6,5 13 7 - - W 1021,0 10
14.09.2018 16:00:00 18,1 6,9 15 8 29 16 W 1021,1 10
14.09.2018 15:00:00 19,4 5,6 9 5 29 16 - 1021,1 10
14.09.2018 14:00:00 17,2 6,0 15 8 - - W 1021,7 10
14.09.2018 13:00:00 18,4 6,7 5 3 14 8 - 1021,9 10
14.09.2018 12:00:00 17,0 7,1 5 3 11 6 - 1022,4 10
14.09.2018 11:00:00 15,6 7,4 2 1 - - - 1022,4 10
14.09.2018 10:00:00 13,6 9,4 5 3 11 6 SSW 1022,3 9
14.09.2018 09:00:00 11,5 10,0 5 3 11 6 S 1022,3 9
14.09.2018 08:00:00 9,0 8,4 5 3 - - SSW 1022,4 7
14.09.2018 07:00:00 9,8 7,3 4 2 7 4 - 1022,1 9
14.09.2018 06:00:00 9,4 8,1 4 2 7 4 NW 1022,1 10
14.09.2018 05:00:00 10,1 8,1 2 1 - - - 1022,1 10
14.09.2018 04:00:00 10,5 8,6 2 1 4 2 - 1022,3 10
14.09.2018 03:00:00 10,3 8,3 2 1 7 4 - 1022,6 10
14.09.2018 02:00:00 12,5 8,4 5 3 - - N 1022,6 10
14.09.2018 01:00:00 13,2 8,8 8 4 11 6 N 1022,7 10

tt = Température de l'air
td = dewpoint
ff = Vitesse du vent
fx = gusts
dd = Direction du vent
ppp = reduced air pressure
vv = visibility

stations d'obs. à proximité